Powrót do katalogu

STARLINK-32946

AktywnyŁącznośćVLEO
NORAD 63196·PAYLOAD·🇺🇸 United States

Wystrzelony Mar 13, 2025 z Cape Canaveral Space Force Station

Loading…

Następne Przeloty (najbliższe 24 godziny)

TLE

ŚwieżeSource: CelesTrak SupGP

Epoka: Sep 15, 2026, 03:31 UTC

1 63196C 25048P   26258.14701389  .00001149  00000+0  41634-4 0  2584
2 63196  43.0022  99.3737 0001537 274.4763   5.4518 15.27575561    13

Śledź STARLINK-32946 w czasie rzeczywistym z AllMySat

Download on the App Store